• In Russia
  • List of Countries
  • For 7 days
  • Water Temperature
  • Satellite Maps
  • Weather Map
  • Weather Widgets
  • user-avatar
    Login

    Hourly Weather Kasama

    Today, 25 April, Wednesday

    Time Temperature Precipitation Wind Pressure Humidity
    00:00 +38°C° 0 mm 3 mps 719 mmHg 6%
    01:00 +37°C° 0 mm 2 mps 719 mmHg 6%
    02:00 +36°C° 0 mm 2 mps 720 mmHg 6%
    03:00 +35°C° 0 mm 2 mps 720 mmHg 7%
    04:00 +34°C° 0 mm 1 mps 720 mmHg 7%
    05:00 +33°C° 0 mm 1 mps 720 mmHg 8%
    06:00 +35°C° 0 mm 1 mps 721 mmHg 8%
    07:00 +37°C° 0 mm 2 mps 721 mmHg 9%
    08:00 +39°C° 0 mm 2 mps 722 mmHg 9%
    09:00 +41°C° 0 mm 2 mps 722 mmHg 8%
    10:00 +42°C° 0 mm 2 mps 722 mmHg 8%
    11:00 +45°C° 0 mm 2 mps 722 mmHg 7%
    12:00 +45°C° 0 mm 1 mps 721 mmHg 7%
    13:00 +46°C° 0 mm 1 mps 720 mmHg 6%
    14:00 +47°C° 0 mm 1 mps 720 mmHg 5%
    15:00 +46°C° 0 mm 1 mps 719 mmHg 5%
    16:00 +45°C° 0 mm 1 mps 719 mmHg 5%
    17:00 +44°C° 0 mm 1 mps 718 mmHg 5%
    18:00 +43°C° 0 mm 1 mps 718 mmHg 5%
    19:00 +41°C° 0 mm 1 mps 718 mmHg 5%
    20:00 +40°C° 0 mm 1 mps 718 mmHg 5%
    21:00 +36°C° 0 mm 0 mps 719 mmHg 6%
    22:00 +36°C° 0 mm 0 mps 719 mmHg 6%
    23:00 +35°C° 0 mm 0 mps 719 mmHg 6%

    Tomorrow, 26 April, Thursday

    Time Temperature Precipitation Wind Pressure Humidity
    00:00 +34°C° 0 mm 0 mps 719 mmHg 8%
    01:00 +35°C° 0 mm 1 mps 719 mmHg 10%
    02:00 +35°C° 0 mm 1 mps 718 mmHg 12%
    03:00 +34°C° 0 mm 1 mps 719 mmHg 14%
    04:00 +34°C° 0 mm 1 mps 719 mmHg 16%
    05:00 +33°C° 0 mm 1 mps 719 mmHg 18%
    06:00 +34°C° 0 mm 1 mps 720 mmHg 18%
    07:00 +36°C° 0 mm 1 mps 720 mmHg 18%
    08:00 +39°C° 0 mm 1 mps 721 mmHg 18%
    09:00 +40°C° 0 mm 1 mps 721 mmHg 15%
    10:00 +42°C° 0 mm 1 mps 721 mmHg 12%
    11:00 +45°C° 0 mm 2 mps 721 mmHg 9%
    12:00 +46°C° 0 mm 2 mps 720 mmHg 8%
    13:00 +46°C° 0 mm 2 mps 719 mmHg 7%
    14:00 +47°C° 0 mm 2 mps 719 mmHg 5%
    15:00 +46°C° 0 mm 2 mps 718 mmHg 5%
    16:00 +46°C° 0 mm 2 mps 718 mmHg 5%
    17:00 +45°C° 0 mm 2 mps 717 mmHg 4%
    18:00 +43°C° 0 mm 2 mps 718 mmHg 5%
    19:00 +41°C° 0 mm 2 mps 718 mmHg 5%
    20:00 +40°C° 0 mm 1 mps 718 mmHg 5%
    21:00 +39°C° 0 mm 1 mps 718 mmHg 6%
    22:00 +39°C° 0 mm 1 mps 719 mmHg 7%
    23:00 +37°C° 0 mm 1 mps 719 mmHg 8%

    Day after tomorrow, 27 April, Friday

    Time Temperature Precipitation Wind Pressure Humidity
    00:00 +36°C° 0 mm 1 mps 719 mmHg 11%
    01:00 +35°C° 0 mm 1 mps 719 mmHg 13%
    02:00 +34°C° 0 mm 1 mps 718 mmHg 15%
    03:00 +34°C° 0 mm 1 mps 719 mmHg 16%
    04:00 +34°C° 0 mm 1 mps 719 mmHg 17%
    05:00 +33°C° 0 mm 1 mps 719 mmHg 18%
    06:00 +35°C° 0 mm 2 mps 720 mmHg 15%
    07:00 +37°C° 0 mm 2 mps 721 mmHg 12%
    08:00 +38°C° 0 mm 3 mps 722 mmHg 9%
    09:00 +39°C° 0 mm 3 mps 722 mmHg 9%
    10:00 +42°C° 0 mm 3 mps 722 mmHg 9%
    11:00 +42°C° 0 mm 2 mps 722 mmHg 9%
    12:00 +43°C° 0 mm 2 mps 721 mmHg 9%
    13:00 +45°C° 0 mm 2 mps 720 mmHg 8%
    14:00 +45°C° 0 mm 2 mps 719 mmHg 8%
    15:00 +45°C° 0 mm 2 mps 719 mmHg 8%
    16:00 +43°C° 0 mm 2 mps 719 mmHg 8%
    17:00 +43°C° 0 mm 2 mps 718 mmHg 8%
    18:00 +41°C° 0 mm 2 mps 719 mmHg 10%
    19:00 +40°C° 0 mm 1 mps 719 mmHg 12%
    20:00 +39°C° 0 mm 1 mps 719 mmHg 13%
    21:00 +37°C° 0 mm 1 mps 720 mmHg 16%
    22:00 +36°C° 0 mm 1 mps 720 mmHg 18%
    23:00 +36°C° 0 mm 1 mps 720 mmHg 21%

    28 April, Saturday

    Time Temperature Precipitation Wind Pressure Humidity
    00:00 +35°C° 0 mm 1 mps 720 mmHg 23%
    01:00 +34°C° 0 mm 1 mps 719 mmHg 25%
    02:00 +34°C° 0 mm 1 mps 719 mmHg 27%
    03:00 +33°C° 0 mm 1 mps 719 mmHg 26%
    04:00 +33°C° 0 mm 1 mps 719 mmHg 26%
    05:00 +32°C° 0 mm 1 mps 720 mmHg 26%
    06:00 +34°C° 0 mm 1 mps 721 mmHg 22%
    07:00 +35°C° 0 mm 1 mps 721 mmHg 18%
    08:00 +38°C° 0 mm 2 mps 722 mmHg 15%
    09:00 +39°C° 0 mm 2 mps 722 mmHg 12%
    10:00 +41°C° 0 mm 2 mps 722 mmHg 10%
    11:00 +43°C° 0 mm 2 mps 722 mmHg 7%
    12:00 +44°C° 0 mm 1 mps 721 mmHg 7%
    13:00 +45°C° 0 mm 1 mps 721 mmHg 6%
    14:00 +46°C° 0 mm 1 mps 720 mmHg 6%
    15:00 +45°C° 0 mm 1 mps 719 mmHg 6%
    16:00 +44°C° 0 mm 1 mps 719 mmHg 6%
    17:00 +43°C° 0 mm 1 mps 719 mmHg 6%
    18:00 +42°C° 0 mm 2 mps 719 mmHg 9%
    19:00 +41°C° 0 mm 2 mps 719 mmHg 12%
    20:00 +39°C° 0 mm 2 mps 720 mmHg 15%
    21:00 +39°C° 0 mm 2 mps 720 mmHg 20%
    22:00 +38°C° 0 mm 2 mps 720 mmHg 25%
    23:00 +37°C° 0 mm 3 mps 720 mmHg 30%

    29 April, Sunday

    Time Temperature Precipitation Wind Pressure Humidity
    00:00 +36°C° 0 mm 2 mps 720 mmHg 33%
    01:00 +36°C° 0 mm 2 mps 720 mmHg 36%
    02:00 +34°C° 0 mm 1 mps 719 mmHg 39%
    03:00 +34°C° 0 mm 1 mps 719 mmHg 41%
    04:00 +33°C° 0 mm 1 mps 720 mmHg 42%
    05:00 +33°C° 0 mm 1 mps 720 mmHg 43%
    06:00 +34°C° 0 mm 1 mps 721 mmHg 41%
    07:00 +35°C° 0 mm 1 mps 721 mmHg 38%
    08:00 +37°C° 0 mm 2 mps 722 mmHg 36%
    09:00 +39°C° 0 mm 2 mps 722 mmHg 32%
    10:00 +40°C° 0 mm 2 mps 722 mmHg 28%
    11:00 +42°C° 0 mm 2 mps 722 mmHg 24%
    12:00 +42°C° 0 mm 2 mps 721 mmHg 24%
    13:00 +41°C° 0 mm 2 mps 720 mmHg 24%
    14:00 +41°C° 0 mm 2 mps 719 mmHg 24%
    15:00 +41°C° 0 mm 1 mps 719 mmHg 23%
    16:00 +41°C° 0 mm 1 mps 719 mmHg 23%
    17:00 +41°C° 0 mm 1 mps 719 mmHg 22%
    18:00 +41°C° 0 mm 1 mps 719 mmHg 23%
    19:00 +40°C° 0 mm 1 mps 719 mmHg 24%
    20:00 +39°C° 0 mm 1 mps 719 mmHg 25%
    21:00 +37°C° 0 mm 1 mps 719 mmHg 26%
    22:00 +37°C° 0 mm 1 mps 720 mmHg 27%
    23:00 +36°C° 0 mm 1 mps 720 mmHg 28%

    30 April, Monday

    Time Temperature Precipitation Wind Pressure Humidity
    00:00 +36°C° 0 mm 1 mps 719 mmHg 29%
    01:00 +35°C° 0 mm 1 mps 719 mmHg 29%
    02:00 +35°C° 0 mm 1 mps 718 mmHg 30%
    03:00 +35°C° 0 mm 1 mps 719 mmHg 31%
    04:00 +34°C° 0 mm 1 mps 719 mmHg 31%
    05:00 +34°C° 0 mm 1 mps 719 mmHg 32%
    06:00 +35°C° 0 mm 1 mps 720 mmHg 30%
    07:00 +37°C° 0 mm 2 mps 720 mmHg 28%
    08:00 +39°C° 0 mm 2 mps 721 mmHg 26%
    09:00 +41°C° 0 mm 2 mps 721 mmHg 23%
    10:00 +42°C° 0 mm 2 mps 721 mmHg 20%
    11:00 +45°C° 0 mm 2 mps 720 mmHg 17%
    12:00 +44°C° 0 mm 1 mps 719 mmHg 16%
    13:00 +44°C° 0 mm 1 mps 719 mmHg 15%
    14:00 +44°C° 0 mm 1 mps 718 mmHg 14%
    15:00 +44°C° 0 mm 1 mps 717 mmHg 15%
    16:00 +44°C° 0 mm 1 mps 717 mmHg 15%
    17:00 +43°C° 0 mm 2 mps 717 mmHg 15%
    18:00 +42°C° 0 mm 2 mps 717 mmHg 16%
    19:00 +41°C° 0 mm 2 mps 718 mmHg 18%
    20:00 +40°C° 0 mm 2 mps 718 mmHg 19%
    21:00 +40°C° 0 mm 2 mps 718 mmHg 21%
    22:00 +39°C° 0 mm 2 mps 718 mmHg 22%
    23:00 +37°C° 0 mm 1 mps 718 mmHg 24%
    Show more